Hat Yai, Thailand

12:23 PM +07 on March 28, 2017 (GMT +0700)
Hat Yai International

Weather History for VTSS - September, 2012

Change the Weather History Date:

Thursday, September 13, 2012

  Actual Average Record
Temperature  
Mean Temperature 79 °F -  
Max Temperature 84 °F 86 °F 95 °F (2002)
Min Temperature 74 °F 74 °F 73 °F (1999)
Cooling Degree Days 14    
Growing Degree Days 29 (Base 50)    
Moisture  
Dew Point 73 °F    
Average Humidity 82    
Maximum Humidity 89    
Minimum Humidity 74    
Precipitation  
Precipitation 0.04 in - - ()
Sea Level Pressure  
Sea Level Pressure 29.85 in    
Wind  
Wind Speed 5 mph ()    
Max Wind Speed 12 mph    
Max Gust Speed -    
Visibility 5.9 miles    
Events Rain    
Averages and records for this station are not official NWS values.
T = Trace of Precipitation, MM = Missing Value Source: Averaged Metar Reports

Daily Weather History Graph

Daily Weather History Graph

Search for Another Location

Airport or City:

Trip Planner

Search our weather history database for the weather conditions in past years. The results will help you decide how hot, cold, wet, or windy it might be!

Date:

Astronomy

Sep. 13, 2012 Rise Set
Actual Time 6:09 AM +07 6:19 PM +07
Civil Twilight 5:48 AM +07 6:40 PM +07
Nautical Twilight 5:23 AM +07 7:04 PM +07
Astronomical Twilight 4:59 AM +07 7:28 PM +07
Moon 3:24 AM +07 (9/13) 4:00 PM +07 (9/13)
Length of Visible Light 12h 51m
Length of Day
12h 10m
Waning Crescent, 10% of the Moon is Illuminated
Sep 13
Waning Crescent
Sep 16
New
Sep 23
First Quarter
Sep 30
Full
Oct 8
Last Quarter

Hourly Weather History & Observations

Time (+07) Temp. Heat Index Dew Point Humidity Pressure Visibility Wind Dir Wind Speed Gust Speed Precip Events Conditions
12:00 AM 77.0 °F - 73.4 °F 89% 29.89 in 6.2 mi SSW 4.6 mph - N/A   Mostly Cloudy
12:30 AM 77.0 °F - 71.6 °F 83% 29.89 in 6.2 mi South 3.5 mph - N/A   Mostly Cloudy
1:00 AM 77 °F - 72 °F 79% 29.88 in 6 mi SE 5.8 mph - -   Scattered Clouds
1:00 AM 77.0 °F - 71.6 °F 83% 29.86 in 6.2 mi SE 5.8 mph - N/A   Mostly Cloudy
1:30 AM 77.0 °F - 71.6 °F 83% 29.86 in 6.2 mi SSE 3.5 mph - N/A   Mostly Cloudy
2:00 AM 75.2 °F - 71.6 °F 89% 29.86 in 6.2 mi SSE 4.6 mph - N/A   Mostly Cloudy
2:30 AM 77.0 °F - 71.6 °F 83% 29.86 in 6.2 mi South 5.8 mph - N/A   Mostly Cloudy
3:00 AM 77.0 °F - 71.6 °F 83% 29.86 in 6.2 mi South 3.5 mph - N/A Rain Light Rain
3:30 AM 75.2 °F - 71.6 °F 89% 29.86 in 6.2 mi South 5.8 mph - N/A   Mostly Cloudy
4:00 AM 75.2 °F - 71.6 °F 89% 29.86 in 6.2 mi South 6.9 mph - N/A   Mostly Cloudy
5:00 AM 75.2 °F - 71.6 °F 89% 29.83 in 6.2 mi South 5.8 mph - N/A   Mostly Cloudy
5:30 AM 75.2 °F - 71.6 °F 89% 29.83 in 6.2 mi South 4.6 mph - N/A   Mostly Cloudy
6:00 AM 75.2 °F - 71.6 °F 89% 29.83 in 6.2 mi Calm Calm - N/A   Mostly Cloudy
6:30 AM 75.2 °F - 71.6 °F 89% 29.86 in 5.0 mi SSW 3.5 mph - N/A   Mostly Cloudy
7:00 AM 75 °F - 71 °F 85% 29.87 in 5 mi South 4.6 mph - -   Partly Cloudy
7:00 AM 75.2 °F - 71.6 °F 89% 29.86 in 5.0 mi South 4.6 mph - N/A   Mostly Cloudy
7:30 AM 77.0 °F - 73.4 °F 89% 29.86 in 4.3 mi South 3.5 mph - N/A   Mostly Cloudy
8:00 AM 77.0 °F - 73.4 °F 89% 29.89 in 5.0 mi South 4.6 mph - N/A   Mostly Cloudy
8:30 AM 80.6 °F 86.2 °F 75.2 °F 84% 29.89 in 5.6 mi SSW 8.1 mph - N/A   Mostly Cloudy
9:00 AM 80.6 °F 87.1 °F 77.0 °F 89% 29.89 in 6.2 mi WSW 8.1 mph - N/A   Mostly Cloudy
9:30 AM 82.4 °F 90.9 °F 77.0 °F 84% 29.89 in 6.2 mi SW 9.2 mph - N/A   Mostly Cloudy
10:00 AM 82.4 °F 90.9 °F 77.0 °F 84% 29.89 in 6.2 mi SW 9.2 mph - N/A Rain Light Rain
10:30 AM 84.2 °F 94.1 °F 77.0 °F 79% 29.89 in 6.2 mi SW 11.5 mph - N/A   Mostly Cloudy
11:00 AM 84.2 °F 94.1 °F 77.0 °F 79% 29.89 in 6.2 mi SW 11.5 mph - N/A   Mostly Cloudy
11:30 AM 80.6 °F 84.6 °F 71.6 °F 74% 29.89 in 4.3 mi West 11.5 mph - N/A Rain Light Rain
12:00 PM 82.4 °F 89.5 °F 75.2 °F 79% 29.86 in 5.6 mi WSW 9.2 mph - N/A Rain Light Rain
12:30 PM 80.6 °F 85.4 °F 73.4 °F 79% 29.86 in 6.2 mi WSW 10.4 mph - N/A   Mostly Cloudy
1:00 PM 80 °F - 73 °F 75% 29.86 in 6 mi South 8.1 mph - - Rain Light Rain
1:00 PM 80.6 °F 85.4 °F 73.4 °F 79% 29.83 in 6.2 mi South 6.9 mph - N/A   Mostly Cloudy
1:30 PM 80.6 °F 85.4 °F 73.4 °F 79% 29.83 in 6.2 mi SW 6.9 mph - N/A Rain Light Rain
2:00 PM 80.6 °F 86.2 °F 75.2 °F 84% 29.83 in 6.2 mi SW 8.1 mph - N/A Rain Light Rain
2:30 PM 80.6 °F 85.4 °F 73.4 °F 79% 29.80 in 6.2 mi WSW 9.2 mph - N/A Rain Light Rain
3:00 PM 80.6 °F 85.4 °F 73.4 °F 79% 29.80 in 6.2 mi WSW 9.2 mph - N/A Rain Light Rain
3:30 PM 80.6 °F 85.4 °F 73.4 °F 79% 29.80 in 6.2 mi SW 6.9 mph - N/A Rain Light Rain
4:00 PM 80.6 °F 85.4 °F 73.4 °F 79% 29.80 in 6.2 mi SW 9.2 mph - N/A Rain Light Rain
4:30 PM 80.6 °F 85.4 °F 73.4 °F 79% 29.80 in 6.2 mi SW 9.2 mph - N/A Rain Light Rain
5:00 PM 78.8 °F - 71.6 °F 78% 29.80 in 6.2 mi SW 6.9 mph - N/A Rain Light Rain
5:30 PM 78.8 °F - 71.6 °F 78% 29.80 in 5.6 mi SW 6.9 mph - N/A Rain Light Rain
6:00 PM 77.0 °F - 71.6 °F 83% 29.83 in 5.6 mi WSW 5.8 mph - N/A Rain Light Rain
6:30 PM 77.0 °F - 71.6 °F 83% 29.83 in 5.6 mi West 5.8 mph - N/A Rain Light Rain
7:00 PM 77 °F - 71 °F 76% 29.85 in 6 mi Calm Calm - - Rain Light Rain
7:00 PM 77.0 °F - 71.6 °F 83% 29.83 in 5.6 mi Calm Calm - N/A Rain Light Rain
7:30 PM 77.0 °F - 69.8 °F 78% 29.83 in 6.2 mi South 4.6 mph - N/A Rain Light Rain
8:00 PM 77.0 °F - 71.6 °F 83% 29.83 in 6.2 mi SSE 3.5 mph - N/A   Mostly Cloudy
8:30 PM 77.0 °F - 71.6 °F 83% 29.86 in 6.2 mi SSW 3.5 mph - N/A   Mostly Cloudy
9:00 PM 77.0 °F - 71.6 °F 83% 29.86 in 6.2 mi SSW 6.9 mph - N/A   Mostly Cloudy
9:30 PM 78.8 °F - 73.4 °F 83% 29.86 in 6.2 mi WSW 10.4 mph - N/A   Mostly Cloudy
10:00 PM 78.8 °F - 71.6 °F 78% 29.89 in 6.2 mi SSW 8.1 mph - N/A   Mostly Cloudy
10:30 PM 78.8 °F - 71.6 °F 78% 29.86 in 6.2 mi WSW 4.6 mph - N/A Rain Light Rain
11:00 PM 78.8 °F - 71.6 °F 78% 29.86 in 6.2 mi WSW 4.6 mph - N/A Rain Light Rain
11:30 PM 78.8 °F - 71.6 °F 78% 29.86 in 6.2 mi SW 6.9 mph - N/A Rain Light Rain